Location: Most
(50.5133°N, 13.6207°E)
Time: 21:34:54
(UTC+02:00)

ISS - Pass Details

Date: 20 May 2025
Orbit: 415 x 416 km, 51.6° (Epoch: 16 June)

Event Time Altitude Azimuth Distance (km) Brightness Sun altitude
Rises 23:03:04 0° 286° (WNW) 2,362 0.8 -14.6°
Reaches altitude 10° 23:05:15 10° 278° (W) 1,495 -0.5 -14.8°
Maximum altitude 23:08:23 37° 210° (SSW) 668 -3.0 -15.0°
Enters shadow 23:09:08 32° 178° (S) 741 -3.0 -15.0°
